Date String (YYYY-MM-DD hh:mm:ss) UTC,Instrument flags,absolute air pressure of the measurement (hPa),sample flow rate (lpm),inlet stack bypass flow (lpm),air temperature of the measurement (°C),ambient temperature measured by the external sensor (°C),aerosol sample conditioner tube jacket temperature (°C),OPC LED temperature (°C),internal box temperature (°C),relative humidity of the measurement (%),span deviation,mass concentration of particles derived from Lorenz-Mie calculation of OPC scattering (μg/m³),mass concentration of particles derived from Lorenz-Mie calculation of OPC scattering (μg/m³),mass concentration of particles derived from Lorenz-Mie calculation of OPC scattering (μg/m³)
DateTimeUTC,F1_M11,P_M11,Q1_M11,Q2_M11,T1_M11,T2_M11,T3_M11,T4_M11,T5_M11,U1_M11,ZSPAN_M11,X2_M11,X0_M11,X1_M11
2023-08-03 04:00:00,SystemResetWarning,0834.8,5.01,000.00,032.6,025.6,000.0,040.4,031.4,34.6,0000.0,0004.84,0013.09,0004.01
2023-08-03 04:01:00,SystemResetWarning,0835.3,4.97,000.00,032.5,026.1,000.0,040.5,031.5,35.0,0000.0,0004.88,0013.22,0004.03
2023-08-03 04:02:00,SystemResetWarning,0835.3,5.02,000.00,032.5,026.5,000.0,040.5,031.7,35.1,0000.0,0004.95,0013.59,0004.05
2023-08-03 04:03:00,SystemResetWarning,0835.1,4.98,000.00,032.6,026.9,000.0,040.4,031.8,34.7,0000.0,0004.93,0013.42,0004.06
2023-08-03 04:04:00,SystemResetWarning,0834.9,4.99,000.00,032.7,027.2,000.0,040.4,031.9,34.4,0000.0,0004.95,0012.25,0004.08
2023-08-03 04:05:00,SystemResetWarning,0834.9,5.01,000.00,032.7,027.5,000.0,040.4,031.9,34.3,0000.0,0004.96,0011.92,0004.09
2023-08-03 04:06:00,SystemResetWarning,0834.9,5.00,000.00,032.7,027.8,000.0,040.4,032.0,34.4,0000.0,0004.95,0011.57,0004.10
2023-08-03 04:07:00,SystemResetWarning,0835.0,5.00,000.00,032.7,028.0,000.0,040.4,032.0,34.6,0000.0,0004.98,0010.54,0004.12
2023-08-03 04:08:00,SystemResetWarning,0835.0,5.00,000.00,032.6,028.2,000.0,040.4,032.0,34.7,0000.0,0004.96,0010.28,0004.12
2023-08-03 04:09:00,SystemResetWarning,0834.9,4.98,000.00,032.6,028.3,000.0,040.4,032.1,34.9,0000.0,0005.00,0010.16,0004.13
2023-08-03 04:10:00,SystemResetWarning,0835.3,5.00,000.00,032.7,027.5,000.0,040.4,032.1,35.2,0000.0,0004.99,0010.54,0004.12
2023-08-03 04:11:00,SystemResetWarning,0835.1,5.01,000.00,032.8,025.8,000.0,040.2,032.0,34.7,0000.0,0004.96,0010.78,0004.12
2023-08-03 04:12:00,SystemResetWarning,0835.0,4.98,000.00,032.9,025.1,000.0,040.1,031.8,34.6,0000.0,0004.95,0011.46,0004.12
2023-08-03 04:13:00,SystemResetWarning,0834.9,5.01,000.00,032.8,025.2,000.0,040.1,031.5,34.9,0000.0,0004.86,0011.36,0004.11
2023-08-03 04:14:00,SystemResetWarning,0834.9,4.99,000.00,032.7,025.6,000.0,040.2,031.5,35.8,0000.0,0004.87,0011.22,0004.11
2023-08-03 04:15:00,SystemResetWarning,0834.9,5.02,000.00,032.8,026.1,000.0,040.2,031.6,35.4,0000.0,0004.85,0010.90,0004.11
2023-08-03 04:16:00,SystemResetWarning,0835.0,4.98,000.00,033.0,026.5,000.0,040.2,031.8,34.3,0000.0,0004.83,0010.87,0004.10
2023-08-03 04:17:00,SystemResetWarning,0835.0,5.00,000.00,033.1,026.9,000.0,040.3,031.9,33.8,0000.0,0004.87,0011.61,0004.10
2023-08-03 04:18:00,SystemResetWarning,0835.0,5.02,000.00,033.2,027.2,000.0,040.3,032.0,34.0,0000.0,0004.88,0011.56,0004.11
2023-08-03 04:19:00,SystemResetWarning,0835.1,4.99,000.00,033.2,027.6,000.0,040.4,032.0,33.8,0000.0,0004.89,0011.55,0004.13
2023-08-03 04:20:00,SystemResetWarning,0835.1,4.99,000.00,033.2,027.8,000.0,040.5,032.0,34.2,0000.0,0004.89,0011.50,0004.16
2023-08-03 04:21:00,SystemResetWarning,0835.1,5.00,000.00,033.2,028.0,000.0,040.5,032.1,34.4,0000.0,0004.97,0011.48,0004.19
2023-08-03 04:22:00,SystemResetWarning,0835.1,5.00,000.00,033.1,028.2,000.0,040.6,032.1,34.5,0000.0,0005.07,0011.01,0004.23
2023-08-03 04:23:00,SystemResetWarning,0835.2,5.01,000.00,033.1,028.3,000.0,040.6,032.1,34.3,0000.0,0005.09,0010.10,0004.25
2023-08-03 04:24:00,SystemResetWarning,0835.2,4.99,000.00,033.1,028.1,000.0,040.6,032.2,34.3,0000.0,0005.15,0009.79,0004.28
2023-08-03 04:25:00,SystemResetWarning,0835.2,5.00,000.00,033.1,026.6,000.0,040.5,032.0,34.5,0000.0,0005.19,0010.02,0004.31
2023-08-03 04:26:00,SystemResetWarning,0835.3,5.01,000.00,033.0,025.9,000.0,040.4,031.9,34.6,0000.0,0005.25,0010.18,0004.33
2023-08-03 04:27:00,SystemResetWarning,0835.3,4.98,000.00,032.8,025.9,000.0,040.4,031.6,35.2,0000.0,0005.25,0010.21,0004.35
2023-08-03 04:28:00,SystemResetWarning,0835.3,5.03,000.00,032.8,026.3,000.0,040.5,031.7,35.5,0000.0,0005.26,0009.80,0004.37
2023-08-03 04:29:00,SystemResetWarning,0835.3,4.99,000.00,032.9,026.6,000.0,040.5,031.9,35.5,0000.0,0005.23,0009.63,0004.38
2023-08-03 04:30:00,SystemResetWarning,0835.2,5.00,000.00,033.2,027.0,000.0,040.5,032.1,35.2,0000.0,0005.22,0009.58,0004.39
2023-08-03 04:31:00,SystemResetWarning,0835.4,5.00,000.00,033.5,027.3,000.0,040.5,032.2,34.8,0000.0,0005.24,0009.68,0004.40
2023-08-03 04:32:00,SystemResetWarning,0835.5,4.98,000.00,033.7,027.6,000.0,040.6,032.3,34.3,0000.0,0005.21,0010.10,0004.41
2023-08-03 04:33:00,SystemResetWarning,0835.5,5.02,000.00,033.8,027.8,000.0,040.6,032.3,34.1,0000.0,0005.21,0010.00,0004.42
2023-08-03 04:34:00,SystemResetWarning,0835.5,5.00,000.00,033.8,028.0,000.0,040.7,032.3,33.6,0000.0,0005.24,0010.27,0004.44
2023-08-03 04:35:00,SystemResetWarning,0835.5,5.00,000.00,033.8,028.2,000.0,040.8,032.3,33.8,0000.0,0005.27,0010.55,0004.45
2023-08-03 04:36:00,SystemResetWarning,0835.5,5.00,000.00,033.8,028.3,000.0,040.9,032.3,33.7,0000.0,0005.26,0010.31,0004.47
2023-08-03 04:37:00,SystemResetWarning,0835.4,5.00,000.00,033.7,028.4,000.0,041.0,032.4,33.7,0000.0,0005.27,0010.39,0004.46
2023-08-03 04:38:00,SystemResetWarning,0835.3,5.00,000.00,033.7,028.6,000.0,041.1,032.4,33.6,0000.0,0005.26,0011.12,0004.46
2023-08-03 04:39:00,SystemResetWarning,0835.2,5.00,000.00,033.7,028.2,000.0,041.0,032.4,33.6,0000.0,0005.25,0010.94,0004.46
2023-08-03 04:40:00,SystemResetWarning,0835.3,4.98,000.00,033.6,026.4,000.0,040.9,032.1,33.5,0000.0,0005.25,0011.42,0004.45
2023-08-03 04:41:00,SystemResetWarning,0835.2,5.01,000.00,033.5,025.3,000.0,040.8,031.9,33.7,0000.0,0005.27,0011.54,0004.45
2023-08-03 04:42:00,SystemResetWarning,0835.1,5.01,000.00,033.4,025.2,000.0,040.8,031.6,33.9,0000.0,0005.24,0011.37,0004.45
2023-08-03 04:43:00,SystemResetWarning,0835.2,4.99,000.00,033.1,025.5,000.0,040.8,031.5,34.6,0000.0,0005.22,0010.83,0004.46
2023-08-03 04:44:00,SystemResetWarning,0835.2,4.99,000.00,032.9,025.9,000.0,040.8,031.6,34.9,0000.0,0005.18,0010.78,0004.45
2023-08-03 04:45:00,SystemResetWarning,0835.1,5.01,000.00,032.8,026.4,000.0,040.8,031.7,35.1,0000.0,0005.20,0011.53,0004.47
2023-08-03 04:46:00,SystemResetWarning,0835.0,5.02,000.00,032.9,026.8,000.0,040.8,031.9,35.0,0000.0,0005.20,0011.46,0004.47
2023-08-03 04:47:00,SystemResetWarning,0835.0,4.98,000.00,033.1,027.2,000.0,040.7,032.1,34.7,0000.0,0005.22,0011.60,0004.47
2023-08-03 04:48:00,SystemResetWarning,0835.0,5.00,000.00,033.2,027.5,000.0,040.7,032.1,34.6,0000.0,0005.28,0011.70,0004.48
2023-08-03 04:49:00,SystemResetWarning,0835.0,5.01,000.00,033.2,027.7,000.0,040.7,032.1,34.5,0000.0,0005.31,0011.09,0004.49
2023-08-03 04:50:00,SystemResetWarning,0835.0,4.99,000.00,033.2,028.0,000.0,040.8,032.1,34.4,0000.0,0005.35,0011.16,0004.49
2023-08-03 04:51:00,SystemResetWarning,0835.0,5.00,000.00,033.2,028.1,000.0,040.8,032.2,34.4,0000.0,0005.35,0011.02,0004.49
2023-08-03 04:52:00,SystemResetWarning,0835.0,5.00,000.00,033.1,028.3,000.0,040.8,032.2,34.5,0000.0,0005.33,0011.08,0004.48
2023-08-03 04:53:00,SystemResetWarning,0835.1,5.00,000.00,033.1,028.4,000.0,040.8,032.2,34.5,0000.0,0005.33,0011.28,0004.44
2023-08-03 04:54:00,SystemResetWarning,0835.1,4.99,000.00,033.1,028.0,000.0,040.8,032.2,34.5,0000.0,0005.32,0011.37,0004.40
2023-08-03 04:55:00,SystemResetWarning,0835.1,4.99,000.00,033.0,026.4,000.0,040.7,032.0,34.7,0000.0,0005.32,0011.36,0004.36
2023-08-03 04:56:00,SystemResetWarning,0835.1,5.00,000.00,033.0,025.8,000.0,040.5,031.8,34.9,0000.0,0005.23,0010.71,0004.30
2023-08-03 04:57:00,SystemResetWarning,0835.1,5.01,000.00,032.8,025.9,000.0,040.6,031.6,35.3,0000.0,0005.14,0010.34,0004.22
2023-08-03 04:58:00,SystemResetWarning,0835.1,5.01,000.00,032.8,026.2,000.0,040.6,031.7,35.3,0000.0,0004.99,0009.93,0004.14
2023-08-03 04:59:00,SystemResetWarning,0835.2,5.01,000.00,033.0,026.6,000.0,040.6,031.9,35.0,0000.0,0004.85,0009.71,0004.06
